| time (UTC) | temp F | wind direction | speed MPH | gust MPH | rain 1hr in | rain 24hr in | rain mn in | humidity % | barometer mb |
| 20260504151040 | 70 | 263 | 1.0 | 8.0 | 0.00 | 0.00 | 0.00 | 31 | 1012.9 |
| 20260504150541 | 69 | 235 | 2.0 | 8.0 | 0.00 | 0.00 | 0.00 | 31 | 1013.0 |
| 20260504141040 | 67 | 203 | 1.0 | 5.0 | 0.00 | 0.00 | 0.00 | 35 | 1013.3 |
| 20260504140541 | 66 | 267 | 1.0 | 8.0 | 0.00 | 0.00 | 0.00 | 35 | 1013.5 |
| 20260504130540 | 62 | 0 | 0.0 | 3.0 | 0.00 | 0.00 | 0.00 | 42 | 1014.1 |
| 20260504120124 | 54 | 0 | 0.0 | 5.0 | 0.00 | 0.00 | 0.00 | 53 | 1014.4 |
| 20260504110539 | 48 | 188 | 0.0 | 1.0 | 0.00 | 0.00 | 0.00 | 60 | 1014.4 |
| 20260504100540 | 48 | 0 | 0.0 | 1.0 | 0.00 | 0.00 | 0.00 | 57 | 1014.3 |
| 20260504081604 | 50 | 0 | 0.0 | 1.0 | 0.00 | 0.00 | 0.00 | 51 | 1013.8 |
| 20260504081039 | 50 | 0 | 0.0 | 1.0 | 0.00 | 0.00 | 0.00 | 51 | 1013.8 |
| 20260504080539 | 50 | 215 | 0.0 | 1.0 | 0.00 | 0.00 | 0.00 | 51 | 1013.8 |
| 20260504050540 | 50 | 238 | 0.0 | 2.0 | 0.00 | 0.00 | 0.00 | 51 | 1012.9 |
| 20260504045539 | 50 | 0 | 0.0 | 2.0 | 0.00 | 0.00 | 0.00 | 52 | 1013.0 |
| 20260504045039 | 49 | 256 | 0.0 | 1.0 | 0.00 | 0.00 | 0.00 | 52 | 1012.9 |
| 20260504044550 | 49 | 0 | 0.0 | 1.0 | 0.00 | 0.00 | 0.00 | 52 | 1012.9 |
| 20260504044039 | 49 | 0 | 0.0 | 1.0 | 0.00 | 0.00 | 0.00 | 52 | 1012.8 |
| 20260504043539 | 49 | 0 | 0.0 | 1.0 | 0.00 | 0.00 | 0.00 | 53 | 1012.8 |
| 20260504043107 | 49 | 0 | 0.0 | 1.0 | 0.00 | 0.00 | 0.00 | 52 | 1012.8 |
| 20260504042539 | 49 | 0 | 0.0 | 1.0 | 0.00 | 0.00 | 0.00 | 53 | 1012.7 |
| 20260504042040 | 49 | 0 | 0.0 | 0.0 | 0.00 | 0.00 | 0.00 | 53 | 1012.7 |
| 20260504041551 | 49 | 0 | 0.0 | 0.0 | 0.00 | 0.00 | 0.00 | 52 | 1012.6 |
| 20260504041040 | 49 | 0 | 0.0 | 0.0 | 0.00 | 0.00 | 0.00 | 52 | 1012.6 |
| 20260504040540 | 49 | 0 | 0.0 | 0.0 | 0.00 | 0.00 | 0.00 | 52 | 1012.7 |
| 20260504040051 | 49 | 0 | 0.0 | 0.0 | 0.00 | 0.00 | 0.00 | 51 | 1012.7 |
| 20260504035540 | 50 | 0 | 0.0 | 0.0 | 0.00 | 0.00 | 0.00 | 51 | 1012.6 |
| 20260504035040 | 50 | 0 | 0.0 | 0.0 | 0.00 | 0.00 | 0.00 | 51 | 1012.6 |
| 20260504034547 | 50 | 0 | 0.0 | 0.0 | 0.00 | 0.00 | 0.00 | 50 | 1012.5 |
| 20260504034039 | 50 | 0 | 0.0 | 0.0 | 0.00 | 0.00 | 0.00 | 50 | 1012.5 |
| 20260504033626 | 50 | 0 | 0.0 | 0.0 | 0.00 | 0.00 | 0.00 | 50 | 1012.5 |
| 20260504033052 | 50 | 0 | 0.0 | 0.0 | 0.00 | 0.00 | 0.00 | 50 | 1012.6 |
| 20260504032539 | 50 | 0 | 0.0 | 0.0 | 0.00 | 0.00 | 0.00 | 49 | 1012.6 |
| 20260504032040 | 50 | 0 | 0.0 | 0.0 | 0.00 | 0.00 | 0.00 | 49 | 1012.6 |
| 20260504031558 | 51 | 0 | 0.0 | 0.0 | 0.00 | 0.00 | 0.00 | 49 | 1012.6 |
| 20260504031041 | 51 | 0 | 0.0 | 0.0 | 0.00 | 0.00 | 0.00 | 49 | 1012.7 |
| 20260504030539 | 51 | 0 | 0.0 | 0.0 | 0.00 | 0.00 | 0.00 | 48 | 1012.5 |
| 20260504030104 | 51 | 0 | 0.0 | 0.0 | 0.00 | 0.00 | 0.00 | 49 | 1012.5 |
| 20260504025540 | 51 | 0 | 0.0 | 0.0 | 0.00 | 0.00 | 0.00 | 48 | 1012.5 |
| 20260504025040 | 51 | 0 | 0.0 | 0.0 | 0.00 | 0.00 | 0.00 | 47 | 1012.5 |
| 20260504024550 | 52 | 0 | 0.0 | 0.0 | 0.00 | 0.00 | 0.00 | 47 | 1012.5 |
| 20260504024039 | 52 | 0 | 0.0 | 0.0 | 0.00 | 0.00 | 0.00 | 46 | 1012.5 |
| 20260504023540 | 52 | 0 | 0.0 | 0.0 | 0.00 | 0.00 | 0.00 | 45 | 1012.4 |
| 20260504023045 | 52 | 0 | 0.0 | 0.0 | 0.00 | 0.00 | 0.00 | 45 | 1012.5 |
| 20260504022542 | 52 | 0 | 0.0 | 0.0 | 0.00 | 0.00 | 0.00 | 44 | 1012.4 |
| 20260504022040 | 53 | 0 | 0.0 | 0.0 | 0.00 | 0.00 | 0.00 | 44 | 1012.6 |
| 20260504021548 | 53 | 0 | 0.0 | 0.0 | 0.00 | 0.00 | 0.00 | 44 | 1012.5 |
| 20260504021039 | 53 | 0 | 0.0 | 0.0 | 0.00 | 0.00 | 0.00 | 43 | 1012.7 |
| 20260504020542 | 53 | 0 | 0.0 | 0.0 | 0.00 | 0.00 | 0.00 | 42 | 1012.6 |
| 20260504020043 | 54 | 0 | 0.0 | 0.0 | 0.00 | 0.00 | 0.00 | 42 | 1012.5 |
| 20260504015539 | 54 | 0 | 0.0 | 0.0 | 0.00 | 0.00 | 0.00 | 41 | 1012.5 |
| 20260504015039 | 54 | 0 | 0.0 | 0.0 | 0.00 | 0.00 | 0.00 | 41 | 1012.5 |
| 20260504014541 | 54 | 0 | 0.0 | 0.0 | 0.00 | 0.00 | 0.00 | 41 | 1012.4 |
| 20260504014039 | 55 | 0 | 0.0 | 0.0 | 0.00 | 0.00 | 0.00 | 40 | 1012.3 |
| 20260504013543 | 55 | 0 | 0.0 | 1.0 | 0.00 | 0.00 | 0.00 | 39 | 1012.3 |
| 20260504013052 | 55 | 0 | 0.0 | 1.0 | 0.00 | 0.00 | 0.00 | 39 | 1012.2 |
| 20260504012540 | 55 | 0 | 0.0 | 0.0 | 0.00 | 0.00 | 0.00 | 39 | 1012.2 |
| 20260504012039 | 56 | 0 | 0.0 | 0.0 | 0.00 | 0.00 | 0.00 | 38 | 1012.2 |
| 20260504011544 | 56 | 0 | 0.0 | 0.0 | 0.00 | 0.00 | 0.00 | 38 | 1012.2 |
| 20260504011042 | 56 | 0 | 0.0 | 0.0 | 0.00 | 0.00 | 0.00 | 37 | 1012.1 |
| 20260504010539 | 56 | 0 | 0.0 | 0.0 | 0.00 | 0.00 | 0.00 | 36 | 1012.0 |
| 20260504010054 | 57 | 0 | 0.0 | 0.0 | 0.00 | 0.00 | 0.00 | 34 | 1011.9 |
| 20260504005540 | 57 | 0 | 0.0 | 0.0 | 0.00 | 0.00 | 0.00 | 34 | 1011.8 |
| 20260504005040 | 57 | 0 | 0.0 | 0.0 | 0.00 | 0.00 | 0.00 | 34 | 1011.7 |
| 20260504004549 | 57 | 0 | 0.0 | 0.0 | 0.00 | 0.00 | 0.00 | 34 | 1011.7 |
| 20260504004040 | 58 | 0 | 0.0 | 0.0 | 0.00 | 0.00 | 0.00 | 34 | 1011.7 |
| 20260504003541 | 58 | 0 | 0.0 | 0.0 | 0.00 | 0.00 | 0.00 | 34 | 1011.7 |
| 20260504003047 | 58 | 0 | 0.0 | 1.0 | 0.00 | 0.00 | 0.00 | 33 | 1011.7 |
| 20260504002539 | 58 | 0 | 0.0 | 1.0 | 0.00 | 0.00 | 0.00 | 33 | 1011.6 |
| 20260504002044 | 58 | 0 | 0.0 | 1.0 | 0.00 | 0.00 | 0.00 | 32 | 1011.4 |
| 20260504001558 | 58 | 0 | 0.0 | 1.0 | 0.00 | 0.00 | 0.00 | 32 | 1011.4 |
| 20260504001039 | 59 | 0 | 0.0 | 1.0 | 0.00 | 0.00 | 0.00 | 32 | 1011.3 |
| 20260504000538 | 59 | 0 | 0.0 | 1.0 | 0.00 | 0.00 | 0.00 | 31 | 1011.3 |
| 20260504000043 | 59 | 0 | 0.0 | 1.0 | 0.00 | 0.00 | 0.00 | 31 | 1011.2 |
| 20260503235539 | 59 | 0 | 0.0 | 2.0 | 0.00 | 0.00 | 0.00 | 31 | 1011.1 |
| 20260503235039 | 59 | 0 | 0.0 | 2.0 | 0.00 | 0.00 | 0.00 | 31 | 1011.2 |
| 20260503234550 | 59 | 307 | 0.0 | 2.0 | 0.00 | 0.00 | 0.00 | 30 | 1011.1 |
| 20260503234041 | 59 | 0 | 0.0 | 1.0 | 0.00 | 0.00 | 0.00 | 30 | 1011.0 |
| 20260503233539 | 60 | 0 | 0.0 | 2.0 | 0.00 | 0.00 | 0.00 | 30 | 1011.0 |
| 20260503233054 | 60 | 0 | 0.0 | 3.0 | 0.00 | 0.00 | 0.00 | 29 | 1010.8 |
| 20260503232539 | 60 | 0 | 0.0 | 3.0 | 0.00 | 0.00 | 0.00 | 29 | 1010.8 |
| 20260503232040 | 60 | 315 | 1.0 | 4.0 | 0.00 | 0.00 | 0.00 | 28 | 1010.8 |
| 20260503231545 | 60 | 316 | 1.0 | 4.0 | 0.00 | 0.00 | 0.00 | 28 | 1010.8 |
| 20260503231041 | 60 | 292 | 1.0 | 7.0 | 0.00 | 0.00 | 0.00 | 29 | 1010.8 |
| 20260503230539 | 60 | 281 | 2.0 | 7.0 | 0.00 | 0.00 | 0.00 | 28 | 1010.8 |
| 20260503230100 | 60 | 271 | 2.0 | 10.0 | 0.00 | 0.00 | 0.00 | 28 | 1010.7 |
| 20260503225540 | 60 | 313 | 2.0 | 10.0 | 0.00 | 0.00 | 0.00 | 28 | 1010.6 |
| 20260503225039 | 60 | 277 | 2.0 | 6.0 | 0.00 | 0.00 | 0.00 | 28 | 1010.6 |
| 20260503224548 | 60 | 269 | 1.0 | 6.0 | 0.00 | 0.00 | 0.00 | 27 | 1010.5 |
| 20260503224041 | 60 | 315 | 1.0 | 5.0 | 0.00 | 0.00 | 0.00 | 27 | 1010.5 |
| 20260503223540 | 60 | 317 | 1.0 | 5.0 | 0.00 | 0.00 | 0.00 | 27 | 1010.5 |
| 20260503223106 | 60 | 285 | 1.0 | 5.0 | 0.00 | 0.00 | 0.00 | 27 | 1010.5 |
| 20260503222541 | 60 | 300 | 2.0 | 5.0 | 0.00 | 0.00 | 0.00 | 27 | 1010.6 |
| 20260503222039 | 60 | 322 | 1.0 | 4.0 | 0.00 | 0.00 | 0.00 | 27 | 1010.6 |
| 20260503221552 | 60 | 270 | 1.0 | 4.0 | 0.00 | 0.00 | 0.00 | 27 | 1010.5 |
| 20260503221039 | 60 | 340 | 1.0 | 4.0 | 0.00 | 0.00 | 0.00 | 27 | 1010.4 |
| 20260503220539 | 60 | 324 | 2.0 | 5.0 | 0.00 | 0.00 | 0.00 | 27 | 1010.4 |
| 20260503220047 | 60 | 318 | 2.0 | 5.0 | 0.00 | 0.00 | 0.00 | 27 | 1010.5 |
| 20260503215540 | 60 | 299 | 1.0 | 4.0 | 0.00 | 0.00 | 0.00 | 27 | 1010.6 |
| 20260503215040 | 60 | 272 | 1.0 | 8.0 | 0.00 | 0.00 | 0.00 | 27 | 1010.6 |
| 20260503214555 | 60 | 315 | 2.0 | 8.0 | 0.00 | 0.00 | 0.00 | 27 | 1010.5 |
| 20260503214040 | 60 | 320 | 2.0 | 7.0 | 0.00 | 0.00 | 0.00 | 27 | 1010.7 |
| 20260503213540 | 60 | 288 | 3.0 | 8.0 | 0.00 | 0.00 | 0.00 | 27 | 1010.5 |
| 20260503213051 | 60 | 314 | 2.0 | 8.0 | 0.00 | 0.00 | 0.00 | 27 | 1010.4 |
| 20260503212539 | 60 | 321 | 2.0 | 8.0 | 0.00 | 0.00 | 0.00 | 27 | 1010.4 |
| 20260503212039 | 60 | 331 | 2.0 | 9.0 | 0.00 | 0.00 | 0.00 | 27 | 1010.4 |
| 20260503211551 | 60 | 325 | 2.0 | 9.0 | 0.00 | 0.00 | 0.00 | 27 | 1010.4 |
| 20260503211039 | 60 | 260 | 3.0 | 8.0 | 0.00 | 0.00 | 0.00 | 27 | 1010.3 |
| 20260503210539 | 60 | 310 | 2.0 | 5.0 | 0.00 | 0.00 | 0.00 | 27 | 1010.3 |
| 20260503210047 | 60 | 319 | 2.0 | 9.0 | 0.00 | 0.00 | 0.00 | 28 | 1010.2 |
| 20260503205539 | 60 | 315 | 2.0 | 9.0 | 0.00 | 0.00 | 0.00 | 28 | 1010.2 |
| 20260503205039 | 60 | 321 | 2.0 | 9.0 | 0.00 | 0.00 | 0.00 | 28 | 1010.3 |
| 20260503204546 | 60 | 290 | 3.0 | 8.0 | 0.00 | 0.00 | 0.00 | 29 | 1010.4 |
| 20260503204039 | 60 | 327 | 1.0 | 4.0 | 0.00 | 0.00 | 0.00 | 29 | 1010.3 |
| 20260503203540 | 59 | 317 | 1.0 | 4.0 | 0.00 | 0.00 | 0.00 | 30 | 1010.2 |
| 20260503203051 | 59 | 261 | 1.0 | 5.0 | 0.00 | 0.00 | 0.00 | 31 | 1010.3 |
| 20260503202541 | 59 | 306 | 2.0 | 5.0 | 0.00 | 0.00 | 0.00 | 30 | 1010.2 |
| 20260503202040 | 58 | 326 | 2.0 | 6.0 | 0.00 | 0.00 | 0.00 | 30 | 1010.4 |
| 20260503201553 | 58 | 309 | 2.0 | 8.0 | 0.00 | 0.00 | 0.00 | 30 | 1010.3 |
| 20260503201041 | 58 | 321 | 3.0 | 8.0 | 0.00 | 0.00 | 0.00 | 29 | 1010.4 |
| 20260503200539 | 58 | 330 | 3.0 | 8.0 | 0.00 | 0.00 | 0.00 | 29 | 1010.5 |
| 20260503200055 | 58 | 271 | 2.0 | 8.0 | 0.00 | 0.00 | 0.00 | 30 | 1010.6 |
| 20260503195536 | 58 | 329 | 3.0 | 9.0 | 0.00 | 0.00 | 0.00 | 30 | 1010.6 |
| 20260503195039 | 58 | 329 | 3.0 | 9.0 | 0.00 | 0.00 | 0.00 | 29 | 1010.6 |
| 20260503194616 | 58 | 309 | 3.0 | 10.0 | 0.00 | 0.00 | 0.00 | 30 | 1010.6 |
| 20260503194041 | 58 | 345 | 3.0 | 10.0 | 0.00 | 0.00 | 0.00 | 29 | 1010.8 |
| 20260503193539 | 58 | 340 | 4.0 | 10.0 | 0.00 | 0.00 | 0.00 | 30 | 1010.9 |
| 20260503193050 | 58 | 301 | 3.0 | 8.0 | 0.00 | 0.00 | 0.00 | 31 | 1010.9 |
| 20260503192539 | 58 | 294 | 2.0 | 8.0 | 0.00 | 0.00 | 0.00 | 31 | 1011.0 |
| 20260503192039 | 58 | 275 | 2.0 | 8.0 | 0.00 | 0.00 | 0.00 | 31 | 1011.0 |
| 20260503191557 | 58 | 265 | 3.0 | 8.0 | 0.00 | 0.00 | 0.00 | 32 | 1011.2 |
| 20260503191040 | 58 | 309 | 1.0 | 9.0 | 0.00 | 0.00 | 0.00 | 32 | 1011.2 |
| 20260503190627 | 58 | 318 | 3.0 | 9.0 | 0.00 | 0.00 | 0.00 | 32 | 1011.1 |
| 20260503190051 | 58 | 303 | 2.0 | 8.0 | 0.00 | 0.00 | 0.00 | 32 | 1011.2 |
| 20260503185541 | 58 | 288 | 3.0 | 8.0 | 0.00 | 0.00 | 0.00 | 31 | 1011.2 |
| 20260503185040 | 58 | 292 | 3.0 | 8.0 | 0.00 | 0.00 | 0.00 | 33 | 1011.3 |
| 20260503184550 | 58 | 293 | 2.0 | 6.0 | 0.00 | 0.00 | 0.00 | 34 | 1011.4 |
| 20260503184040 | 57 | 273 | 2.0 | 6.0 | 0.00 | 0.00 | 0.00 | 33 | 1011.3 |
| 20260503183539 | 57 | 294 | 1.0 | 6.0 | 0.00 | 0.00 | 0.00 | 33 | 1011.6 |
| 20260503183055 | 57 | 300 | 1.0 | 5.0 | 0.00 | 0.00 | 0.00 | 33 | 1011.4 |
| 20260503182539 | 57 | 266 | 2.0 | 7.0 | 0.00 | 0.00 | 0.00 | 34 | 1011.5 |
| 20260503182039 | 57 | 273 | 3.0 | 7.0 | 0.00 | 0.00 | 0.00 | 34 | 1011.4 |
| 20260503181607 | 56 | 336 | 2.0 | 7.0 | 0.00 | 0.00 | 0.00 | 35 | 1011.5 |
| 20260503181042 | 56 | 27 | 2.0 | 7.0 | 0.00 | 0.00 | 0.00 | 33 | 1011.6 |
| 20260503180540 | 56 | 315 | 2.0 | 10.0 | 0.00 | 0.00 | 0.00 | 35 | 1011.6 |
| 20260503180054 | 56 | 309 | 2.0 | 10.0 | 0.00 | 0.00 | 0.00 | 35 | 1011.5 |
| 20260503175540 | 56 | 329 | 3.0 | 10.0 | 0.00 | 0.00 | 0.00 | 34 | 1011.6 |
| 20260503175041 | 57 | 334 | 2.0 | 9.0 | 0.00 | 0.00 | 0.00 | 34 | 1011.6 |
| 20260503174553 | 56 | 340 | 3.0 | 9.0 | 0.00 | 0.00 | 0.00 | 34 | 1011.7 |
| 20260503174039 | 56 | 327 | 3.0 | 9.0 | 0.00 | 0.00 | 0.00 | 34 | 1011.7 |
| 20260503173539 | 56 | 308 | 3.0 | 9.0 | 0.00 | 0.00 | 0.00 | 35 | 1011.8 |
| 20260503173053 | 56 | 17 | 2.0 | 9.0 | 0.00 | 0.00 | 0.00 | 37 | 1011.9 |
| 20260503172539 | 55 | 322 | 2.0 | 9.0 | 0.00 | 0.00 | 0.00 | 37 | 1011.8 |
| 20260503172040 | 55 | 336 | 3.0 | 10.0 | 0.00 | 0.00 | 0.00 | 36 | 1011.8 |
| 20260503171551 | 55 | 318 | 3.0 | 10.0 | 0.00 | 0.00 | 0.00 | 35 | 1011.8 |
| 20260503171041 | 55 | 303 | 3.0 | 9.0 | 0.00 | 0.00 | 0.00 | 33 | 1011.8 |
| 20260503170540 | 55 | 319 | 3.0 | 9.0 | 0.00 | 0.00 | 0.00 | 35 | 1011.9 |
| 20260503170104 | 55 | 299 | 3.0 | 7.0 | 0.00 | 0.00 | 0.00 | 36 | 1011.9 |